www.pogodaiklimat.ru

Погода и климат >> Архив погоды >> Канада >> London


ПОГОДА в London

  • Прогноз погоды в London
  • Монитор погоды в London
  • Климат города

АРХИВ ПОГОДЫ в London

Время (UTC), дата Ветер
(напр.,м/с)
 
Видим.   Явления Облачность Т
(С)
Тd
(С)
f
(%)
Тe
(С)
Тes
(С)
Комфортность P
(гПа)
Po
(гПа)
Тmin
(С)
Tmax
(С)
R
(мм)
R24
(мм)
S
(см)
00 14.05 З 4 24 км 3/0
[]
+17.4 +4.9 44 +17 +17 1015.1 982.0 +6.5 +21.4
03 14.05 Ю 2 24 км ясно +12.7 +9.8 83 +12 +12 1015.4 982.3
06 14.05 ЮВ 1 24 км 3/0
[]
+9.7 +8.5 92 +9 +9 1014.6 981.5 +6.5 +21.4
09 14.05 В 2 12 км 1/0
[]
+7.9 +7.2 95 +6 +6 1014.7 981.6
12 14.05 С 1 1200 м 10/10 <50 м
[]
+10.2 +9.9 98 +11 +11 1014.6 981.5 +7.5 +21.4
15 14.05 ЮЗ 3 9000 м 10/10 300 м
[]
+15.9 +13.2 84 +15 +15 1016.0 982.9
18 14.05 ЮЗ 5 9000 м 10/10 300 м
[]
+17.8 +13.5 76 +17 +17 1014.9 981.8 +7.5 +18.3
21 14.05 Ю 3 9000 м 8/8 600 м
[]
+20.3 +15.4 73 +23 +25 комфорт 1010.2 977.2
00 15.05 ЮЗ 3 12 км 8/8 1000 м
[]
+17.1 +14.6 85 +17 +17 1011.9 978.9 +7.5 +20.9
03 15.05 ЮВ 2 9000 м 5/5 1000 м
[]
+15.2 +14.1 93 +15 +15 1011.4 978.5
06 15.05 Ю 4 2400 м 8/8 50 м
[]
+14.3 +13.8 97 +13 +13 1009.3 976.5 +7.5 +20.9
09 15.05 С 1 8000 м 10/10 1500 м
[]
+14.8 +14.5 98 +15 +15 1008.7 976.0
12 15.05 З 3 8000 м 10/10 100 м
[]
+16.6 +16.2 97 +16 +16 1009.4 976.6 +14.3 +20.9
15 15.05 С 3 24 км 10/10 1000 м
[]
+16.1 +13.0 82 +16 +16 1012.5 979.6
18 15.05 СВ 3 24 км 8/8 300 м
[]
+17.9 +13.5 75 +18 +21 1014.0 981.0 +14.3 +18.1
21 15.05 СЗ 4 24 км 9/9 600 м
[]
+19.6 +14.7 73 +21 +22 комфорт 1014.9 982.0
00 16.05 СЗ 4 24 км 9/0
[]
+15.8 +12.5 81 +15 +15 1015.6 982.6 +14.3 +21.3
03 16.05 СЗ 2 24 км 4/0
[]
+11.6 +10.5 93 +10 +10 1017.7 984.5
06 16.05 СВ 2 24 км ясно +10.5 +7.6 82 +9 +9 1017.6 984.4 +10.2 +21.3
09 16.05 СВ 2 24 км 4/0
[]
+9.3 +6.5 83 +8 +8 1017.2 984.0
12 16.05 В 3 24 км 4/0
[]
+12.3 +7.2 71 +11 +13 1018.1 984.9 +8.2 +21.3
15 16.05 С 1 24 км 5/0
[]
+17.9 +10.8 63 +20 +33 опасность
простуды
1018.1 984.9
18 16.05 СВ 1 24 км 6/0
[]
+22.0 +6.6 37 +23 +38 комфорт 1016.2 983.2 +8.2 +22.0
21 16.05 С 2 24 км 6/6 1500 м
[]
+24.0 +10.6 43 +25 +29 комфорт 1015.1 982.1
00 17.05 СЗ 2 24 км 9/0
[]
+22.3 +8.7 42 +24 +24 комфорт 1014.8 981.9 +8.2 +24.1
03 17.05 С 1 19 км 8/0
[]
+15.7 +12.7 82 +17 +17 1015.8 982.8
06 17.05 штиль 0 24 км ясно +12.2 +11.5 95 +12 +12 1015.6 982.6 +8.2 +24.1
09 17.05 С 1 2400 м ясно +10.9 +10.5 97 +11 +11 1015.4 982.5
12 17.05 З 2 16 км ясно +15.3 +13.1 87 +15 +18 1016.6 983.7 +10.1 +24.1
15 17.05 С 3 24 км ясно +23.7 +12.2 48 +25 +38 комфорт 1017.4 984.5
18 17.05 С 3 24 км 1/0
[]
+25.6 +12.5 44 +27 +42 жарко 1018.1 985.2 +10.1 +25.8
21 17.05 С 3 24 км 9/9 1500 м
[]
+26.3 +12.9 43 +28 +29 жарко 1017.7 984.8
00 18.05 С 4 24 км 10/0
[]
+21.2 +7.4 41 +22 +22 комфорт 1019.3 986.3 +10.1 +26.3
03 18.05 С 4 24 км 10/0
[]
+16.1 +8.6 61 +16 +16 1021.5 988.5
06 18.05 СВ 5 24 км 10/0
[]
+12.6 +2.4 50 +11 +11 1022.1 989.1 +10.1 +26.3
09 18.05 В 9 24 км 10/0
[]
+11.4 -0.6 43 +8 +8 1022.9 989.8
12 18.05 В 10 24 км 9/0
[]
+10.9 -1.7 41 +7 +7 1024.3 991.0 +10.2 +26.3
15 18.05 В 10 24 км 8/0
[]
+15.3 -0.8 33 +13 +14 1025.2 991.8
18 18.05 В 11 24 км 9/0
[]
+17.4 +1.3 34 +16 +16 1023.2 989.9 +10.2 +17.9
21 18.05 В 10 24 км 8/0
[]
+18.8 +3.5 36 +18 +18 1021.4 988.1
00 19.05 В 10 24 км 9/0
[]
+15.0 0.0 36 +13 +13 1021.0 987.6 +10.2 +18.9
03 19.05 В 9 24 км 5/0
[]
+13.1 +1.2 44 +10 +10 1020.7 987.4
06 19.05 В 7 24 км 10/0 2000 м
[]
+13.7 +2.1 45 +12 +12 1019.1 985.9 +10.2 +18.9
09 19.05 В 6 24 км 10/10 1000 м
[]
+11.2 +7.2 76 +8 +8 1017.2 984.1
12 19.05 В 5 4000 м 10/10 50 м
[]
+11.9 +11.4 97 +9 +9 1016.3 983.1 +10.3 +18.9
15 19.05 ЮВ 6 19 км 10/10 200 м
[]
+14.8 +13.6 93 +13 +13 1014.6 981.5
18 19.05 Ю 6 24 км 10/10 300 м
[]
+18.3 +14.7 80 +18 +18 1012.6 979.7 +10.3 +18.3
21 19.05 Ю 4 24 км 9/9 300 м
[]
+21.7 +17.5 77 +26 +27 душно 1010.3 977.5
00 20.05 Ю 4 24 км 9/9 600 м
[]
+20.3 +17.2 82 +24 +24 комфорт 1009.9 977.1 +10.3 +22.2
03 20.05 З 2 11 км 10/10 100 м
[]
+17.7 +16.7 94 +18 +18 1011.2 978.3
06 20.05 СЗ 5 24 км 10/10 300 м
[]
+13.5 +11.6 88 +12 +12 1013.5 980.5 +10.3 +22.2
09 20.05 СЗ 4 24 км 10/10 100 м
[]
+11.1 +10.0 93 +9 +9 1014.9 981.9
12 20.05 СЗ 4 19 км 10/10 100 м
[]
+10.6 +9.6 94 +8 +8 1017.8 984.7 +10.2 +22.2
15 20.05 СЗ 4 24 км 10/10 200 м
[]
+12.5 +10.5 88 +10 +10 1020.4 987.2
18 20.05 СЗ 4 24 км 10/10 300 м
[]
+15.5 +11.2 76 +15 +15 1021.3 988.0 +10.2 +16.4

 

Местоположение метеостанции London (Канада): широта 43.03 долгота -81.15 высота над уровнем моря 278 м.

В архиве по умолчанию представлена погода в London за последнюю неделю. Архивные данные за месяц целиком и за предыдущие месяцы, начиная с января 2011 года, Вы можете получить, выбрав интересующий диапазон дат из раскрывающегося списка и нажав кнопку "Ввод!".


*Определитесь, кто Вы:
робот инопланетянин человек

Внимание! Время в таблицах - всемирное. Для получения местного времени необходимо прибавить поправку, которая в London равна -5 ч.

Смотрите также архив погоды в соседних городах и на ближайших метеорологических станциях:

Погода в London Cs (Канада) (1 км)
Погода в Delhi (Канада) (52 км)
Погода в Brantford Airport (Канада) (68 км)
Погода в Simcoe (Канада) (74 км)
Погода в Waterloo Wellington (Канада) (78 км)
Погода в Ridgetown Rcs (Канада) (88 км)
Погода в Elora Rcs (Канада) (91 км)
Погода в Sarnia Climate (Канада) (94 км)
Погода в Goderich (Канада) (94 км)
Погода в Guelph Turfgrass (Канада) (95 км)

Пояснения к столбцам:

Ветер - указаны скорость ветра в м/с - средняя за 10 мин, порывы в срок и между сроками (в фигурных скобках) и направление, откуда дует ветер: С - северный, СВ - северо-восточный, В - восточный, ЮВ - юго-восточный, Ю - южный, ЮЗ - юго-западный, З - западный, СЗ - северо-западный.
Видимость - горизонтальная дальность видимости в метрах или километрах. При видимости от 1 до 10 км при отсутствии осадков обычно наблюдается дымка, при ухудшении видимости до 1 км и менее - туман. В сухую погоду видимость может ухудшаться дымом, пылью или мглою.
Явления - указаны атмосферные явления, наблюдавшиеся в срок или в последний час перед сроком; фигурными скобками обозначены явления, наблюдавшиеся между сроками (за 1-3 часа до срока); квадратными скобками обозначены град или гололедные отложения с указанием их диаметра в мм.
Облачность - указаны через наклонную черту общая и нижняя облачность в баллах и высота нижней границы облаков в метрах; квадратными скобками обозначены формы облаков: Ci - перистые, Cs - перисто-слоистые, Cc - перисто-кучевые, Ac - высококучевые, As - высокослоистые, Sc - слоисто-кучевые, Ns - слоисто-дождевые, Cu - кучевые, Cb - кучево-дождевые. Подробнее классификацию облаков см. в Атласе облаков (PDF).
T - Температура воздуха - температура, измеренная на высоте 2 м над землей.
Td - Температура точки росы - температура, при понижении до которой содержащийся в воздухе водяной пар достигнет насыщения.
f - Относительная влажность воздуха - влажноcть воздуха, измеренная на высоте 2 м над землей.
Te - Эффективная температура - температура, которую ощущает одетый по сезону человек в тени. Характеристика душности погоды. При расчете учитывается влияние влажности воздуха и скорости ветра на теплоощущения человека.
Tes - Эффективная температура на солнце - температура, которую ощущает человек, с поправкой на солнечный нагрев. Характеристика знойности погоды. Зависит от высоты солнца над горизонтом, облачности и скорости ветра. Ночью, в пасмурную погоду, а также при ветре 12 м/с и более поправка равна нулю.
P - Атмосферное давление - приведенное к уровню моря атмосферное давление.
Po - Атмосферное давление - измеренное на уровне метеостанции атмосферное давление.
Tmin - Минимальная температура - минимум температуры воздуха на высоте 2 м над землей.
Tmax - Максимальная температура - максимум температуры воздуха на высоте 2 м над землей.
R - Количество осадков - Количество выпавших осадков за период времени, мм. При наведении курсора мыши на число - период времени, за который выпало указанное количество осадков.
R24 - Количество осадков - Количество выпавших осадков за 24 часа, мм.
S - Снежный покров - Высота снежного покрова, см. При наведении курсора мыши на число - состояние снежного покрова и степень покрытия местности в баллах.